�������l�o���
Date,Time,MP-1(��Sv/h),MP-2(��Sv/h),MP-3(��Sv/h),MP-4(��Sv/h),MP-5(��Sv/h),MP-6(��Sv/h),MP-7(��Sv/h),MP-8(��Sv/h),����,����(m/s),���J
2015/12/14,00:00,1.655,2.635,3.083,2.850,-,0.863,1.527,1.457,�k�k��,7.1,��
2015/12/14,00:10,1.655,2.632,3.083,2.853,-,0.863,1.527,1.458,�k�k��,7.7,��
2015/12/14,00:20,1.655,2.640,3.083,2.853,-,0.865,1.525,1.458,�k�k��,8.4,��
2015/12/14,00:30,1.655,2.637,3.085,2.853,-,0.862,1.525,1.457,�k�k��,7.9,��
2015/12/14,00:40,1.657,2.637,3.085,2.848,-,0.863,1.528,1.455,�k�k��,7.9,��
2015/12/14,00:50,1.652,2.637,3.085,2.853,-,0.862,1.527,1.455,�k��,7.8,��
2015/12/14,01:00,1.653,2.637,3.087,2.857,-,0.863,1.525,1.457,�k��,7.8,��
2015/12/14,01:10,1.658,2.637,3.088,2.853,-,0.862,1.525,1.455,�k�k��,7.2,��
2015/12/14,01:20,1.657,2.638,3.087,2.855,-,0.863,1.527,1.455,�k�k��,8.5,��
2015/12/14,01:30,1.655,2.638,3.088,2.855,-,0.865,1.527,1.457,�k�k��,8.3,��
2015/12/14,01:40,1.653,2.640,3.092,2.852,-,0.863,1.527,1.453,�k�k��,8.5,��
2015/12/14,01:50,1.655,2.637,3.093,2.855,-,0.862,1.525,1.457,�k�k��,8.3,��
2015/12/14,02:00,1.655,2.637,3.090,2.857,-,0.860,1.527,1.457,�k�k��,7.9,��
2015/12/14,02:10,1.655,2.637,3.087,2.858,-,0.862,1.525,1.457,�k�k��,8.0,��
2015/12/14,02:20,1.655,2.640,3.087,2.855,-,0.862,1.525,1.457,�k�k��,8.1,��
2015/12/14,02:30,1.655,2.638,3.085,2.855,-,0.860,1.527,1.458,�k�k��,8.2,��
2015/12/14,02:40,1.652,2.640,3.087,2.855,-,0.860,1.525,1.457,�k��,8.1,��
2015/12/14,02:50,1.655,2.642,3.090,2.853,-,0.862,1.527,1.458,�k��,7.7,��
2015/12/14,03:00,1.657,2.638,3.090,2.852,-,0.863,1.527,1.457,�k��,8.5,��
2015/12/14,03:10,1.657,2.637,3.090,2.853,-,0.865,1.527,1.455,�k�k��,7.6,��
2015/12/14,03:20,1.655,2.640,3.090,2.857,-,0.862,1.528,1.457,�k�k��,8.4,��
2015/12/14,03:30,1.655,2.642,3.090,2.853,-,0.862,1.523,1.457,�k��,7.6,��
2015/12/14,03:40,1.655,2.645,3.090,2.855,-,0.863,1.523,1.455,�k�k��,7.5,��
2015/12/14,03:50,1.653,2.638,3.090,2.858,-,0.860,1.527,1.457,�k��,7.8,��
2015/12/14,04:00,1.655,2.637,3.088,2.858,-,0.862,1.525,1.458,�k�k��,8.0,��
2015/12/14,04:10,1.653,2.640,3.085,2.855,-,0.862,1.527,1.457,�k�k��,8.4,��
2015/12/14,04:20,1.657,2.640,3.090,2.855,-,0.863,1.525,1.457,�k�k��,8.4,��
2015/12/14,04:30,1.655,2.637,3.088,2.857,-,0.862,1.525,1.455,�k�k��,7.8,��
2015/12/14,04:40,1.657,2.638,3.090,2.857,-,0.862,1.527,1.455,�k�k��,6.8,��
2015/12/14,04:50,1.655,2.640,3.087,2.858,-,0.860,1.527,1.457,�k�k��,7.6,��
2015/12/14,05:00,1.655,2.637,3.087,2.857,-,0.862,1.525,1.457,�k�k��,7.5,��
2015/12/14,05:10,1.655,2.640,3.088,2.858,-,0.862,1.525,1.458,�k�k��,7.2,��
2015/12/14,05:20,1.655,2.640,3.088,2.852,-,0.862,1.525,1.457,�k�k��,6.7,��
2015/12/14,05:30,1.657,2.642,3.093,2.858,-,0.860,1.527,1.458,�k�k��,7.8,��
2015/12/14,05:40,1.655,2.640,3.098,2.857,-,0.862,1.527,1.458,�k��,7.6,��
2015/12/14,05:50,1.655,2.640,3.090,2.858,-,0.858,1.525,1.460,�k��,6.8,��
2015/12/14,06:00,1.653,2.637,3.088,2.855,-,0.857,1.527,1.457,�k�k��,7.3,��
2015/12/14,06:10,1.655,2.637,3.090,2.853,-,0.855,1.525,1.455,�k�k��,6.0,��
2015/12/14,06:20,1.653,2.638,3.083,2.855,-,0.857,1.527,1.458,�k�k��,6.3,��
2015/12/14,06:30,1.653,2.640,3.088,2.857,-,0.857,1.525,1.457,�k�k��,6.5,��
2015/12/14,06:40,1.653,2.640,3.087,2.858,-,0.855,1.525,1.457,�k�k��,7.5,��
2015/12/14,06:50,1.652,2.637,3.087,2.855,-,0.858,1.525,1.458,�k�k��,7.2,��
2015/12/14,07:00,1.653,2.638,3.083,2.855,-,0.857,1.527,1.458,�k�k��,7.4,��
2015/12/14,07:10,1.652,2.632,3.082,2.855,-,0.857,1.527,1.455,�k�k��,6.8,��
2015/12/14,07:20,1.652,2.635,3.083,2.858,-,0.857,1.525,1.457,�k�k��,7.1,��
2015/12/14,07:30,1.653,2.637,3.085,2.857,-,0.857,1.528,1.455,�k�k��,6.2,��
2015/12/14,07:40,1.652,2.637,3.082,2.858,-,0.857,1.525,1.457,�k�k��,6.4,��
2015/12/14,07:50,1.655,2.638,3.087,2.853,-,0.858,1.527,1.455,�k�k��,6.5,��
2015/12/14,08:00,1.657,2.637,3.085,2.853,-,0.855,1.528,1.455,�k�k��,6.4,��
2015/12/14,08:10,1.657,2.637,3.087,2.860,-,0.853,1.523,1.455,�k�k��,7.2,��
2015/12/14,08:20,1.653,2.637,3.087,2.857,-,0.853,1.522,1.455,�k�k��,6.7,��
2015/12/14,08:30,1.653,2.635,3.090,2.855,-,0.853,1.522,1.460,�k�k��,6.5,��
2015/12/14,08:40,1.653,2.638,3.092,2.857,-,0.857,1.522,1.458,�k�k��,7.1,��
2015/12/14,08:50,1.655,2.638,3.088,2.857,-,0.860,1.522,1.458,�k�k��,5.5,��
2015/12/14,09:00,1.653,2.643,3.090,2.857,-,0.858,1.522,1.457,�k�k��,5.2,��
2015/12/14,09:10,1.657,2.638,3.095,2.860,-,0.857,1.522,1.457,�k�k��,5.4,��
2015/12/14,09:20,1.657,2.643,3.092,2.860,-,0.857,1.517,1.455,�k�k��,4.9,��
2015/12/14,09:30,1.657,2.643,3.090,2.862,-,0.858,1.520,1.455,�k�k��,5.0,��
2015/12/14,09:40,1.658,2.643,3.095,2.857,-,0.858,1.525,1.457,�k�k��,4.8,��
2015/12/14,09:50,1.655,2.643,3.095,2.857,-,0.860,1.523,1.457,�k�k��,4.7,��
2015/12/14,10:00,1.658,2.645,3.092,2.860,-,0.860,1.525,1.457,�k�k��,4.4,��
2015/12/14,10:10,1.658,2.640,3.090,2.860,-,0.863,1.527,1.457,�k,4.1,��
2015/12/14,10:20,1.657,2.643,3.097,2.862,-,0.860,1.527,1.458,�k�k��,3.3,��
2015/12/14,10:30,1.653,2.643,3.097,2.862,-,0.862,1.528,1.457,�k,4.4,��
2015/12/14,10:40,1.658,2.647,3.098,2.860,-,0.860,1.528,1.455,�k,5.1,��
2015/12/14,10:50,1.658,2.645,3.100,2.863,-,0.860,1.528,1.455,�k�k��,5.4,��
2015/12/14,11:00,1.658,2.647,3.102,2.863,-,0.858,1.528,1.457,�k,5.3,��
2015/12/14,11:10,1.655,2.643,3.100,2.867,-,0.860,1.528,1.458,�k,6.2,��
2015/12/14,11:20,1.655,2.648,3.103,2.865,-,0.862,1.530,1.455,�k,6.3,��
2015/12/14,11:30,1.657,2.648,3.098,2.862,-,0.860,1.528,1.458,�k,5.9,��
2015/12/14,11:40,1.662,2.648,3.102,2.860,-,0.860,1.530,1.457,�k,5.2,��
2015/12/14,11:50,1.662,2.648,3.105,2.865,-,0.862,1.533,1.458,�k�k��,5.8,��
2015/12/14,12:00,1.662,2.648,3.103,2.863,-,0.860,1.528,1.457,�k,5.5,��
2015/12/14,12:10,1.662,2.650,3.098,2.863,-,0.860,1.528,1.457,�k�k��,5.4,��
2015/12/14,12:20,1.660,2.650,3.098,2.867,-,0.860,1.530,1.457,�k,4.7,��
2015/12/14,12:30,1.662,2.647,3.100,2.863,-,0.860,1.530,1.455,�k,5.3,��
2015/12/14,12:40,1.662,2.650,3.102,2.868,-,0.862,1.528,1.455,�k�k��,5.3,��
2015/12/14,12:50,1.662,2.652,3.100,2.870,-,0.862,1.532,1.455,�k,4.8,��
2015/12/14,13:00,1.662,2.650,3.102,2.872,-,0.862,1.528,1.458,�k,5.7,��
2015/12/14,13:10,1.658,2.650,3.105,2.865,-,0.863,1.532,1.458,�k�k��,4.9,��
2015/12/14,13:20,1.663,2.652,3.107,2.867,-,0.863,1.530,1.455,�k,4.5,��
2015/12/14,13:30,1.662,2.652,3.105,2.867,-,0.860,1.532,1.457,�k,5.4,��
2015/12/14,13:40,1.660,2.652,3.105,2.867,-,0.860,1.532,1.458,�k,4.5,��
2015/12/14,13:50,1.658,2.653,3.105,2.863,-,0.862,1.528,1.457,�k,4.3,��
2015/12/14,14:00,1.658,2.655,3.105,2.863,-,0.862,1.528,1.458,�k,4.8,��
2015/12/14,14:10,1.662,2.650,3.105,2.865,-,0.860,1.528,1.457,�k,5.7,��
2015/12/14,14:20,1.662,2.648,3.105,2.867,-,0.862,1.530,1.460,�k,4.9,��
2015/12/14,14:30,1.660,2.650,3.107,2.867,-,0.862,1.530,1.457,�k,4.5,��
2015/12/14,14:40,1.663,2.652,3.105,2.863,-,0.860,1.530,1.457,�k,5.3,��
2015/12/14,14:50,1.658,2.653,3.107,2.868,-,0.865,1.532,1.457,�k,4.6,��
2015/12/14,15:00,1.658,2.655,3.107,2.870,-,0.863,1.532,1.458,�k,4.6,��
2015/12/14,15:10,1.662,2.652,3.107,2.868,-,0.862,1.530,1.458,�k,4.3,��
2015/12/14,15:20,1.662,2.652,3.105,2.868,-,0.863,1.532,1.460,�k�k��,4.3,��
2015/12/14,15:30,1.665,2.652,3.103,2.868,-,0.865,1.532,1.458,�k,4.8,��
2015/12/14,15:40,1.662,2.652,3.105,2.865,-,0.863,1.533,1.455,�k�k��,5.2,��
2015/12/14,15:50,1.660,2.652,3.105,2.865,-,0.862,1.530,1.457,�k�k��,5.0,��
2015/12/14,16:00,1.660,2.652,3.103,2.870,-,0.863,1.530,1.455,�k�k��,4.0,��
2015/12/14,16:10,1.657,2.653,3.102,2.867,-,0.863,1.530,1.457,�k�k��,4.5,��
2015/12/14,16:20,1.662,2.648,3.102,2.867,-,0.863,1.532,1.455,�k�k��,4.7,��
2015/12/14,16:30,1.658,2.650,3.103,2.865,-,0.865,1.530,1.457,�k�k��,3.5,��
2015/12/14,16:40,1.658,2.648,3.108,2.863,-,0.865,1.532,1.455,�k��,3.7,��
2015/12/14,16:50,1.660,2.648,3.105,2.865,-,0.863,1.530,1.455,�k�k��,4.5,��
2015/12/14,17:00,1.660,2.650,3.105,2.867,-,0.862,1.530,1.457,�k�k��,3.9,��
2015/12/14,17:10,1.660,2.648,3.103,2.865,-,0.863,1.530,1.453,�k�k��,3.9,��
2015/12/14,17:20,1.662,2.650,3.102,2.863,-,0.860,1.530,1.457,�k�k��,3.8,��
2015/12/14,17:30,1.658,2.650,3.105,2.868,-,0.863,1.532,1.458,�k�k��,3.7,��
2015/12/14,17:40,1.658,2.652,3.102,2.870,-,0.862,1.530,1.457,�k�k��,4.4,��
2015/12/14,17:50,1.662,2.653,3.105,2.867,-,0.867,1.530,1.457,�k�k��,4.3,��
2015/12/14,18:00,1.662,2.653,3.102,2.867,-,0.862,1.530,1.457,�k�k��,4.4,��
2015/12/14,18:10,1.658,2.650,3.103,2.865,-,0.863,1.530,1.460,�k�k��,4.6,��
2015/12/14,18:20,1.660,2.653,3.107,2.868,-,0.863,1.533,1.457,�k�k��,4.9,��
2015/12/14,18:30,1.658,2.648,3.102,2.867,-,0.863,1.532,1.455,�k�k��,5.3,��
2015/12/14,18:40,1.662,2.650,3.105,2.867,-,0.863,1.533,1.457,�k��,4.9,��
2015/12/14,18:50,1.665,2.653,3.107,2.868,-,0.865,1.532,1.458,�k��,5.3,��
2015/12/14,19:00,1.663,2.652,3.107,2.867,-,0.863,1.530,1.460,�k�k��,4.8,��
2015/12/14,19:10,1.662,2.652,3.105,2.870,-,0.863,1.530,1.453,�k��,4.0,��
2015/12/14,19:20,1.660,2.650,3.103,2.870,-,0.865,1.530,1.455,�k��,3.9,��
2015/12/14,19:30,1.657,2.652,3.102,2.867,-,0.865,1.530,1.457,�k��,4.5,��
2015/12/14,19:40,1.658,2.650,3.102,2.867,-,0.867,1.528,1.455,�k��,4.1,��
2015/12/14,19:50,1.660,2.653,3.107,2.867,-,0.867,1.530,1.457,�k��,4.8,��
2015/12/14,20:00,1.660,2.650,3.105,2.867,-,0.865,1.533,1.457,�k�k��,4.2,��
2015/12/14,20:10,1.660,2.652,3.103,2.867,-,0.867,1.532,1.458,�k�k��,4.9,��
2015/12/14,20:20,1.662,2.648,3.100,2.872,-,0.865,1.532,1.457,�k��,4.8,��
2015/12/14,20:30,1.662,2.652,3.107,2.870,-,0.865,1.535,1.458,�k��,4.2,��
2015/12/14,20:40,1.662,2.655,3.105,2.865,-,0.867,1.532,1.455,�k��,4.5,��
2015/12/14,20:50,1.662,2.653,3.100,2.870,-,0.865,1.532,1.457,�k��,4.3,��
2015/12/14,21:00,1.658,2.650,3.100,2.867,-,0.868,1.530,1.457,�k��,4.3,��
2015/12/14,21:10,1.658,2.650,3.098,2.868,-,0.867,1.530,1.457,�k�k��,3.9,��
2015/12/14,21:20,1.658,2.652,3.103,2.862,-,0.865,1.528,1.458,�k�k��,4.1,��
2015/12/14,21:30,1.658,2.650,3.103,2.863,-,0.867,1.530,1.460,�k��,4.2,��
2015/12/14,21:40,1.658,2.650,3.105,2.868,-,0.865,1.532,1.457,�k�k��,4.3,��
2015/12/14,21:50,1.660,2.650,3.110,2.865,-,0.865,1.528,1.458,�k�k��,4.5,��
2015/12/14,22:00,1.660,2.653,3.110,2.863,-,0.867,1.532,1.457,�k�k��,4.7,��
2015/12/14,22:10,1.658,2.650,3.108,2.867,-,0.867,1.530,1.457,�k�k��,4.4,��
2015/12/14,22:20,1.658,2.652,3.107,2.867,-,0.867,1.532,1.457,�k�k��,4.8,��
2015/12/14,22:30,1.663,2.652,3.103,2.868,-,0.865,1.528,1.457,�k�k��,4.4,��
2015/12/14,22:40,1.660,2.650,3.103,2.870,-,0.868,1.532,1.457,�k�k��,5.1,��
2015/12/14,22:50,1.663,2.650,3.102,2.865,-,0.865,1.532,1.458,�k�k��,4.2,��
2015/12/14,23:00,1.665,2.650,3.105,2.865,-,0.863,1.530,1.458,�k�k��,4.6,��
2015/12/14,23:10,1.662,2.648,3.105,2.870,-,0.867,1.530,1.457,�k�k��,4.7,��
2015/12/14,23:20,1.662,2.650,3.103,2.868,-,0.867,1.533,1.457,�k�k��,4.7,��
2015/12/14,23:30,1.660,2.652,3.107,2.862,-,0.865,1.532,1.457,�k��,5.3,��
2015/12/14,23:40,1.662,2.652,3.105,2.862,-,0.865,1.532,1.457,�k�k��,5.2,��
2015/12/14,23:50,1.662,2.648,3.105,2.867,-,0.865,1.530,1.457,�k�k��,5.4,��
